TimeCDT,TemperatureF,Dew PointF,Humidity,Sea Level PressureIn,VisibilityMPH,Wind Direction,Wind SpeedMPH,Gust SpeedMPH,PrecipitationIn,Events,Conditions,WindDirDegrees,DateUTC
12:53 AM,48.9,45.0,86,30.09,10.0,Calm,Calm,-,N/A,,Clear,0,2013-05-06 05:53:00
1:53 AM,48.9,44.1,83,30.08,10.0,Calm,Calm,-,N/A,,Clear,0,2013-05-06 06:53:00
2:53 AM,48.0,44.1,86,30.07,10.0,Calm,Calm,-,N/A,,Clear,0,2013-05-06 07:53:00
3:53 AM,46.9,44.1,90,30.07,10.0,Calm,Calm,-,N/A,,Clear,0,2013-05-06 08:53:00
4:53 AM,46.9,43.0,86,30.06,10.0,Calm,Calm,-,N/A,,Clear,0,2013-05-06 09:53:00
5:53 AM,46.9,44.1,90,30.08,10.0,Calm,Calm,-,N/A,,Clear,0,2013-05-06 10:53:00
6:53 AM,50.0,46.0,86,30.10,10.0,NW,3.5,-,N/A,,Clear,310,2013-05-06 11:53:00
7:53 AM,55.9,48.9,77,30.11,10.0,Calm,Calm,-,N/A,,Clear,0,2013-05-06 12:53:00
8:53 AM,63.0,48.0,58,30.11,10.0,Variable,4.6,-,N/A,,Clear,0,2013-05-06 13:53:00
9:53 AM,66.0,44.1,45,30.11,10.0,WNW,5.8,-,N/A,,Clear,290,2013-05-06 14:53:00
10:53 AM,69.1,45.0,42,30.11,10.0,West,8.1,-,N/A,,Clear,270,2013-05-06 15:53:00
11:53 AM,71.1,46.0,41,30.09,10.0,West,4.6,-,N/A,,Clear,260,2013-05-06 16:53:00
12:53 PM,73.9,48.0,40,30.08,10.0,NW,5.8,-,N/A,,Clear,320,2013-05-06 17:53:00
1:53 PM,75.0,50.0,41,30.06,10.0,Variable,4.6,-,N/A,,Clear,0,2013-05-06 18:53:00
2:53 PM,75.9,50.0,40,30.04,10.0,Variable,4.6,-,N/A,,Clear,0,2013-05-06 19:53:00
3:53 PM,78.1,48.9,36,30.00,10.0,NNW,6.9,-,N/A,,Clear,340,2013-05-06 20:53:00
4:53 PM,78.1,48.9,36,29.99,10.0,NW,9.2,-,N/A,,Clear,310,2013-05-06 21:53:00
5:53 PM,78.1,48.9,36,29.98,10.0,NNW,6.9,-,N/A,,Clear,330,2013-05-06 22:53:00
6:53 PM,75.9,48.0,37,29.99,10.0,NNW,6.9,-,N/A,,Clear,340,2013-05-06 23:53:00
7:53 PM,71.1,51.1,49,30.01,10.0,Calm,Calm,-,N/A,,Clear,0,2013-05-07 00:53:00
8:53 PM,66.0,52.0,60,30.02,10.0,West,3.5,-,N/A,,Clear,280,2013-05-07 01:53:00
9:53 PM,63.0,54.0,72,30.04,10.0,WNW,3.5,-,N/A,,Clear,290,2013-05-07 02:53:00
10:53 PM,61.0,53.1,75,30.03,10.0,Calm,Calm,-,N/A,,Clear,0,2013-05-07 03:53:00
11:53 PM,59.0,55.0,87,30.04,10.0,Calm,Calm,-,N/A,,Clear,0,2013-05-07 04:53:00